{"data":{"norad_id":57045,"intl_designator":"2023-086A","name":"NUSANTARA TIGA (SATRIA)","alt_names":[],"object_type":"PAYLOAD","status":"ACTIVE","operator":null,"country":"INDO","launch_date":"2023-06-18","launch_site_code":"AFETR","launch_vehicle":null,"mission":null,"orbit_class":"UNKNOWN","rcs_meters":null,"size_class":null,"mass_kg":null,"dimensions":null,"purposes":["comms"],"wikipedia_slug":null,"has_3d_model":false,"image_url":null,"decayed_at":null,"tle_current":{"epoch":"2026-05-24T18:10:13.166976Z","epoch_age_seconds":102985,"freshness":"FRESH","line1":"1 57045U 23086A   26144.75709684 -.00000239  00000+0  00000+0 0  9996","line2":"2 57045   0.0383 333.9910 0004024  11.0302 315.8823  1.00268796  9527","mean_motion":1.00268796,"eccentricity":0.0004024,"inclination_deg":0.0383,"raan_deg":333.991,"arg_perigee_deg":11.0302,"mean_anomaly_deg":315.8823,"bstar":0,"rev_number":952,"period_min":1436.1397138946,"perigee_km":35770.465481879,"apogee_km":35804.400332541,"semimajor_km":42165.56990721,"source":"CELESTRAK","updated_at":"2026-05-25T13:38:14.141603Z"}}}